Skip Page Navigation
NASA JPL Caltech
NASA Logo - Jet Propulsion Laboratory + View the NASA Portal
+ Center for Near-Earth Object Studies
JPL Home Earth Solar System Stars & Galaxies Technology
JPL Solar System Dynamics
BODIES ORBITS EPHEMERIDES TOOLS PHYSICAL DATA DISCOVERY FAQ SITE MAP
JPL Small-Body Database Browser
Search: [ help ]  
152695 (1998 RN15)
Classification: Main-belt Asteroid          SPK-ID: 2152695
Ephemeris | Orbit Diagram | Orbital Elements | Mission Design | Physical Parameters | Discovery Circumstances | Close-Approach Data ]

[ show orbit diagram ]
Orbital Elements at Epoch 2459200.5 (2020-Dec-17.0) TDB
Reference: JPL 19 (heliocentric ecliptic J2000)
 Element Value Uncertainty (1-sigma)   Units 
e .1114286016489616 4.4229e-08  
a 3.045922022949811 2.3791e-08 au
q 2.706519191200737 1.3117e-07 au
i 1.557024380494918 5.7111e-06 deg
node 177.6577504102088 0.00016076 deg
peri 106.917955399721 0.00016291 deg
M 126.4382614343309 2.5039e-05 deg
tp 2458518.549875315502
(2019-Feb-04.04987532)
0.00013485 TDB
period 1941.675265868215
5.32
2.2749e-05
6.228e-08
d
yr
n .1854069041967359 2.1723e-09 deg/d
Q 3.385324854698885 2.6442e-08 au
  Orbit Determination Parameters
   # obs. used (total)      346  
   data-arc span      8200 days (22.45 yr)  
   first obs. used      1998-08-27  
   last obs. used      2021-02-07  
   planetary ephem.      DE441  
   SB-pert. ephem.      SB441-N16  
   condition code      0  
   norm. resid. RMS      .47789  
   source      ORB  
   producer      Otto Matic  
   solution date      2021-Apr-13 19:28:15  

Additional Information
 Earth MOID = 1.6887 au 
 Jupiter MOID = 1.74775 au 
 T_jup = 3.228 
[ show covariance matrix ]

Ephemeris | Orbit Diagram | Orbital Elements | Mission Design | Physical Parameters | Discovery Circumstances | Close-Approach Data ]

Physical Parameter Table
Parameter Symbol Value Units Sigma Reference Notes
absolute magnitude H 16.1   n/a MPO449823  

152695 (1998 RN15)          Discovered 1998-Sep-15 by Spacewatch at Kitt Peak
Reference: 20070402/Numbers.arcLast Updated: 2007-04-04

[ show close-approach data ]
Alternate Designations
 1998 RN15 = 2002 GX24 
Ephemeris | Orbit Diagram | Orbital Elements | Mission Design | Physical Parameters | Discovery Circumstances | Close-Approach Data ]
ABOUT SSD CREDITS/AWARDS PRIVACY/COPYRIGHT GLOSSARY LINKS
FirstGov 2021-Apr-19 01:15 UT
(server date/time)  
NASA Home Page
Site Manager:   Ryan S. Park
Webmaster  Alan B. Chamberlin